This demonstration page uses our WeatherBlox Daily Observations layout. Learn more.

Left ArrowRight Arrow

31.31129, -92.44514

Hourly Observations for December 7, 2019

Temp ( °F °C ) Dew Point ( °F °C ) Humidity (%) Winds ( mph kmh ) Pressure ( in mb ) Visibility ( mi km ) Precip ( " mm )
12:53 am 00:53 Clear 55 12.8 51 10.6 87 87 NNE 7 11 30.21 1023 10 16 0.00 0.00
1:53 am 01:53 Clear 54 12.2 50 10 87 87 NE 3 6 30.22 1023 10 16 0.00 0.00
2:53 am 02:53 Clear 52 11.1 49 9.4 89 89 Calm 30.22 1024 10 16 0.00 0.00
3:53 am 03:53 Clear 51 10.6 48 8.9 89 89 Calm 30.22 1023 10 16 0.00 0.00
4:53 am 04:53 Clear 51 10.6 48 8.9 89 89 N 5 7 30.22 1023 8 13 0.00 0.00
5:43 am 05:43 Mostly Cloudy 51 10.6 48 8.9 89 89 NNE 6 9 30.23 1024 9 14 0.00 0.00
5:53 am 05:53 Mostly Cloudy 51 10.6 49 9.4 92 92 NNE 7 11 30.24 1024 9 14 0.00 0.00
6:42 am 06:42 Cloudy 52 11.1 48 8.9 86 86 NE 9 15 30.25 1024 9 14 0.00 0.00
6:53 am 06:53 Cloudy 51 10.6 48 8.9 89 89 NE 10 17 30.26 1025 9 14 0.00 0.00
7:53 am 07:53 Cloudy 52 11.1 48 8.9 86 86 NNE 8 13 30.28 1025 8 13 0.00 0.00
8:17 am 08:17 Cloudy 53 11.7 49 9.4 86 86 N 5 7 30.27 1025 9 14 0.00 0.00
8:53 am 08:53 Cloudy 54 12.2 48 8.9 80 80 NNE 8 13 30.28 1026 10 16 0.00 0.00
9:53 am 09:53 Cloudy 55 12.8 47 8.3 74 74 NE 9 15 30.30 1026 10 16 0.00 0.00
10:53 am 10:53 Cloudy 55 12.8 47 8.3 74 74 NNE 9 15 30.29 1026 10 16 0.00 0.00
11:53 am 11:53 Cloudy 56 13.3 48 8.9 75 75 VRB 5 7 30.27 1025 10 16 0.00 0.00
12:53 pm 12:53 Cloudy 58 14.4 48 8.9 70 70 N 8 13 30.25 1025 10 16 0.00 0.00
1:23 pm 13:23 Partly Cloudy 60 15.6 47 8.3 62 62 VRB 3 6 30.23 1024 10 16 0.00 0.00
1:53 pm 13:53 Mostly Sunny 60 15.6 48 8.9 65 65 N 7 11 30.23 1024 10 16 0.00 0.00
2:53 pm 14:53 Mostly Sunny 60 15.6 48 8.9 65 65 ENE 9 15 30.23 1024 10 16 0.00 0.00
3:53 pm 15:53 Sunny 56 13.3 47 8.3 72 72 NE 13 20 30.24 1024 10 16 0.00 0.00
4:53 pm 16:53 Mostly Sunny 52 11.1 46 7.8 80 80 NE 8 13 30.23 1024 10 16 0.00 0.00
5:53 pm 17:53 Clear 50 10 46 7.8 86 86 N 7 11 30.23 1024 10 16 0.00 0.00
6:40 pm 18:40 Partly Cloudy 49 9.4 46 7.8 90 90 NE 8 13 30.22 1023 9 14 0.00 0.00
6:48 pm 18:48 Mostly Cloudy 48 9 46 8 94 94 ENE 10 17 30.22 1023 8 13 0.00 0.00
6:53 pm 18:53 Mostly Cloudy 49 9.4 46 7.8 90 90 ENE 9 15 30.23 1024 8 13 0.00 0.00
7:53 pm 19:53 Cloudy 49 9.4 46 7.8 90 90 ENE 7 11 30.23 1024 8 13 0.00 0.00
8:53 pm 20:53 Cloudy 50 10 46 7.8 86 86 ENE 7 11 30.24 1024 9 14 0.00 0.00
9:53 pm 21:53 Cloudy 50 10 46 7.8 86 86 ENE 6 9 30.23 1024 9 14 0.00 0.00
10:53 pm 22:53 Cloudy 50 10 46 7.8 86 86 NE 3 6 30.22 1024 9 14 0.00 0.00
11:50 pm 23:50 Cloudy 50 10 46 8 88 88 E 3 6 30.20 1023 9 14 0.00 0.00
11:53 pm 23:53 Cloudy 50 10 46 7.8 86 86 ENE 3 6 30.21 1023 9 14 0.00 0.00

Powered by AerisWeather